�������l�o���
Date,Time,MP-1(��Sv/h),MP-2(��Sv/h),MP-3(��Sv/h),MP-4(��Sv/h),MP-5(��Sv/h),MP-6(��Sv/h),MP-7(��Sv/h),MP-8(��Sv/h),����,����(m/s),���J
2022/01/09,00:00,0.584,0.884,0.557,1.083,0.751,0.353,0.615,0.584,���쐼,6.8,��
2022/01/09,00:10,0.584,0.884,0.556,1.085,0.749,0.352,0.615,0.582,���쐼,7.0,��
2022/01/09,00:20,0.583,0.884,0.558,1.087,0.752,0.353,0.614,0.584,�쐼,6.1,��
2022/01/09,00:30,0.585,0.883,0.558,1.085,0.750,0.352,0.616,0.582,�쐼,5.7,��
2022/01/09,00:40,0.585,0.884,0.558,1.087,0.753,0.353,0.615,0.583,�쐼,5.9,��
2022/01/09,00:50,0.583,0.883,0.558,1.086,0.751,0.354,0.615,0.583,��쐼,6.5,��
2022/01/09,01:00,0.582,0.882,0.556,1.084,0.752,0.354,0.615,0.583,��쐼,6.4,��
2022/01/09,01:10,0.586,0.881,0.560,1.085,0.751,0.352,0.615,0.582,��쐼,5.0,��
2022/01/09,01:20,0.586,0.882,0.559,1.085,0.752,0.353,0.615,0.582,��쐼,5.6,��
2022/01/09,01:30,0.583,0.883,0.559,1.087,0.752,0.353,0.615,0.584,��쐼,4.6,��
2022/01/09,01:40,0.584,0.884,0.557,1.086,0.752,0.354,0.615,0.584,�쐼,4.8,��
2022/01/09,01:50,0.584,0.885,0.558,1.084,0.751,0.352,0.615,0.583,��쐼,6.6,��
2022/01/09,02:00,0.583,0.884,0.558,1.086,0.752,0.354,0.615,0.581,�쐼,5.6,��
2022/01/09,02:10,0.585,0.882,0.559,1.085,0.751,0.353,0.616,0.583,��쐼,4.9,��
2022/01/09,02:20,0.586,0.884,0.560,1.086,0.752,0.354,0.616,0.584,��쐼,5.9,��
2022/01/09,02:30,0.584,0.884,0.559,1.087,0.751,0.354,0.618,0.584,��쐼,5.3,��
2022/01/09,02:40,0.585,0.884,0.560,1.084,0.751,0.352,0.613,0.583,�쐼,6.4,��
2022/01/09,02:50,0.586,0.883,0.560,1.084,0.751,0.352,0.616,0.582,��쐼,8.2,��
2022/01/09,03:00,0.584,0.884,0.558,1.084,0.751,0.353,0.615,0.583,�쐼,7.7,��
2022/01/09,03:10,0.585,0.885,0.559,1.085,0.751,0.353,0.615,0.583,�쐼,7.5,��
2022/01/09,03:20,0.584,0.885,0.559,1.086,0.750,0.354,0.615,0.584,��쐼,7.0,��
2022/01/09,03:30,0.585,0.883,0.558,1.085,0.752,0.353,0.618,0.581,��쐼,6.9,��
2022/01/09,03:40,0.585,0.883,0.558,1.087,0.751,0.354,0.616,0.584,�쐼,6.9,��
2022/01/09,03:50,0.586,0.883,0.557,1.085,0.751,0.353,0.616,0.584,��쐼,6.5,��
2022/01/09,04:00,0.584,0.883,0.559,1.086,0.752,0.353,0.618,0.583,��쐼,5.9,��
2022/01/09,04:10,0.585,0.884,0.561,1.085,0.753,0.354,0.617,0.583,��쐼,4.1,��
2022/01/09,04:20,0.586,0.883,0.559,1.087,0.750,0.354,0.615,0.584,��쐼,2.8,��
2022/01/09,04:30,0.584,0.883,0.559,1.085,0.751,0.354,0.615,0.584,��,2.2,��
2022/01/09,04:40,0.585,0.883,0.559,1.084,0.751,0.352,0.618,0.584,��쐼,1.5,��
2022/01/09,04:50,0.585,0.883,0.558,1.087,0.751,0.354,0.615,0.584,�k�k��,0.9,��
2022/01/09,05:00,0.584,0.884,0.557,1.082,0.750,0.354,0.615,0.583,��,1.7,��
2022/01/09,05:10,0.585,0.884,0.559,1.087,0.751,0.353,0.614,0.583,���k��,2.0,��
2022/01/09,05:20,0.585,0.884,0.558,1.087,0.753,0.353,0.615,0.582,���쓌,2.9,��
2022/01/09,05:30,0.585,0.885,0.559,1.086,0.751,0.354,0.615,0.584,���쓌,2.5,��
2022/01/09,05:40,0.587,0.882,0.559,1.089,0.750,0.355,0.616,0.584,���쓌,1.9,��
2022/01/09,05:50,0.584,0.883,0.558,1.088,0.751,0.354,0.614,0.582,�쓌,2.8,��
2022/01/09,06:00,0.583,0.883,0.557,1.084,0.750,0.354,0.614,0.583,���쓌,1.7,��
2022/01/09,06:10,0.586,0.882,0.558,1.084,0.752,0.353,0.615,0.584,��,0.9,��
2022/01/09,06:20,0.584,0.885,0.560,1.085,0.749,0.352,0.614,0.584,��,1.5,��
2022/01/09,06:30,0.586,0.881,0.559,1.084,0.749,0.354,0.615,0.583,�쓌,1.5,��
2022/01/09,06:40,0.584,0.883,0.558,1.084,0.751,0.352,0.616,0.584,��쓌,1.2,��
2022/01/09,06:50,0.585,0.882,0.558,1.086,0.751,0.354,0.616,0.584,��,2.8,��
2022/01/09,07:00,0.586,0.885,0.558,1.084,0.751,0.354,0.614,0.583,�쓌,1.7,��
2022/01/09,07:10,0.584,0.883,0.560,1.086,0.751,0.353,0.617,0.584,��쓌,3.4,��
2022/01/09,07:20,0.583,0.883,0.558,1.085,0.749,0.353,0.616,0.582,��,3.6,��
2022/01/09,07:30,0.586,0.882,0.559,1.084,0.751,0.353,0.616,0.583,��,3.8,��
2022/01/09,07:40,0.585,0.881,0.559,1.085,0.750,0.353,0.616,0.583,��,3.0,��
2022/01/09,07:50,0.585,0.882,0.559,1.085,0.751,0.354,0.617,0.582,���쐼,1.7,��
2022/01/09,08:00,0.586,0.883,0.559,1.086,0.752,0.352,0.616,0.582,���k��,2.3,��
2022/01/09,08:10,0.585,0.884,0.558,1.085,0.752,0.354,0.617,0.584,���k��,0.8,��
2022/01/09,08:20,0.586,0.885,0.561,1.086,0.751,0.353,0.617,0.584,-,CALM,��
2022/01/09,08:30,0.585,0.882,0.558,1.086,0.752,0.355,0.617,0.583,��,3.0,��
2022/01/09,08:40,0.587,0.885,0.559,1.086,0.750,0.354,0.616,0.583,���쓌,3.3,��
2022/01/09,08:50,0.588,0.886,0.559,1.086,0.750,0.353,0.616,0.584,-,CALM,��
2022/01/09,09:00,0.587,0.885,0.559,1.086,0.751,0.353,0.615,0.582,��쐼,1.5,��
2022/01/09,09:10,0.586,0.885,0.560,1.085,0.752,0.354,0.617,0.583,�쐼,3.2,��
2022/01/09,09:20,0.586,0.886,0.560,1.088,0.753,0.353,0.617,0.584,�쐼,3.0,��
2022/01/09,09:30,0.586,0.885,0.560,1.088,0.749,0.354,0.618,0.585,�쐼,0.9,��
2022/01/09,09:40,0.587,0.884,0.562,1.086,0.752,0.354,0.617,0.585,��,1.7,��
2022/01/09,09:50,0.587,0.885,0.558,1.087,0.752,0.354,0.616,0.583,��쓌,2.5,��
2022/01/09,10:00,0.587,0.885,0.559,1.086,0.753,0.354,0.616,0.584,���쓌,3.9,��
2022/01/09,10:10,0.587,0.885,0.560,1.085,0.753,0.354,0.616,0.583,��,2.0,��
2022/01/09,10:20,0.587,0.883,0.560,1.087,0.751,0.353,0.615,0.583,�k��,1.5,��
2022/01/09,10:30,0.588,0.886,0.560,1.088,0.752,0.353,0.615,0.584,���쓌,1.2,��
2022/01/09,10:40,0.588,0.881,0.559,1.088,0.754,0.355,0.616,0.583,��,1.7,��
2022/01/09,10:50,0.589,0.883,0.562,1.087,0.753,0.354,0.614,0.583,���k��,3.4,��
2022/01/09,11:00,0.587,0.885,0.561,1.089,0.753,0.353,0.617,0.585,���k��,5.0,��
2022/01/09,11:10,0.586,0.886,0.559,1.088,0.754,0.355,0.618,0.585,���k��,6.1,��
2022/01/09,11:20,0.587,0.886,0.562,1.087,0.753,0.354,0.615,0.585,��,4.3,��
2022/01/09,11:30,0.588,0.882,0.560,1.087,0.752,0.355,0.616,0.585,��,4.7,��
2022/01/09,11:40,0.587,0.882,0.559,1.088,0.754,0.355,0.615,0.584,��,4.9,��
2022/01/09,11:50,0.589,0.884,0.561,1.086,0.755,0.354,0.617,0.584,���k��,4.2,��
2022/01/09,12:00,0.587,0.883,0.560,1.086,0.754,0.355,0.617,0.585,��,5.3,��
2022/01/09,12:10,0.586,0.885,0.559,1.087,0.754,0.355,0.617,0.586,���k��,5.8,��
2022/01/09,12:20,0.588,0.884,0.561,1.089,0.755,0.355,0.617,0.586,���k��,3.1,��
2022/01/09,12:30,0.586,0.884,0.561,1.088,0.754,0.354,0.617,0.584,���쐼,3.1,��
2022/01/09,12:40,0.586,0.884,0.561,1.089,0.754,0.354,0.616,0.584,��,1.5,��
2022/01/09,12:50,0.584,0.884,0.561,1.087,0.754,0.355,0.618,0.582,��,1.1,��
2022/01/09,13:00,0.587,0.886,0.562,1.089,0.752,0.355,0.617,0.583,���쐼,2.0,��
2022/01/09,13:10,0.585,0.885,0.562,1.090,0.755,0.356,0.618,0.582,���쐼,5.4,��
2022/01/09,13:20,0.589,0.883,0.561,1.088,0.753,0.354,0.615,0.585,��,7.1,��
2022/01/09,13:30,0.588,0.884,0.561,1.088,0.756,0.355,0.617,0.585,��,7.1,��
2022/01/09,13:40,0.587,0.885,0.563,1.089,0.755,0.356,0.618,0.585,��,5.7,��
2022/01/09,13:50,0.588,0.883,0.562,1.087,0.756,0.356,0.619,0.583,��,5.7,��
2022/01/09,14:00,0.586,0.885,0.561,1.089,0.755,0.356,0.617,0.584,��,6.7,��
2022/01/09,14:10,0.587,0.882,0.561,1.090,0.754,0.354,0.617,0.581,��,5.8,��
2022/01/09,14:20,0.586,0.885,0.561,1.089,0.755,0.356,0.617,0.582,��,5.2,��
2022/01/09,14:30,0.587,0.885,0.559,1.089,0.757,0.355,0.618,0.583,��,5.7,��
2022/01/09,14:40,0.586,0.884,0.561,1.087,0.754,0.355,0.617,0.583,��,6.8,��
2022/01/09,14:50,0.585,0.883,0.561,1.092,0.756,0.354,0.618,0.582,��,6.1,��
2022/01/09,15:00,0.586,0.882,0.561,1.092,0.757,0.354,0.617,0.582,��,5.4,��
2022/01/09,15:10,0.587,0.886,0.562,1.088,0.756,0.354,0.616,0.582,���쐼,4.9,��
2022/01/09,15:20,0.586,0.884,0.561,1.087,0.756,0.356,0.617,0.583,��,6.4,��
2022/01/09,15:30,0.586,0.886,0.561,1.088,0.754,0.354,0.618,0.585,��,5.9,��
2022/01/09,15:40,0.585,0.888,0.561,1.090,0.754,0.355,0.618,0.584,���k��,5.3,��
2022/01/09,15:50,0.585,0.888,0.561,1.089,0.755,0.354,0.617,0.586,�k��,4.5,��
2022/01/09,16:00,0.586,0.890,0.562,1.089,0.754,0.354,0.617,0.585,���k��,5.7,��
2022/01/09,16:10,0.586,0.889,0.561,1.089,0.754,0.356,0.617,0.586,���k��,6.4,��
2022/01/09,16:20,0.587,0.887,0.561,1.088,0.753,0.354,0.616,0.585,���k��,7.7,��
2022/01/09,16:30,0.587,0.887,0.560,1.089,0.753,0.354,0.617,0.584,���k��,6.9,��
2022/01/09,16:40,0.587,0.887,0.560,1.089,0.756,0.353,0.616,0.586,���k��,7.6,��
2022/01/09,16:50,0.585,0.887,0.561,1.090,0.754,0.354,0.615,0.585,���k��,7.7,��
2022/01/09,17:00,0.586,0.883,0.559,1.088,0.754,0.353,0.616,0.584,���k��,8.4,��
2022/01/09,17:10,0.586,0.886,0.559,1.091,0.753,0.354,0.617,0.585,���k��,9.0,��
2022/01/09,17:20,0.585,0.886,0.560,1.089,0.756,0.353,0.617,0.584,���k��,7.2,��
2022/01/09,17:30,0.585,0.887,0.560,1.087,0.756,0.353,0.617,0.585,���k��,7.5,��
2022/01/09,17:40,0.586,0.886,0.560,1.087,0.755,0.354,0.619,0.583,���k��,6.9,��
2022/01/09,17:50,0.586,0.887,0.560,1.089,0.754,0.354,0.618,0.583,�k��,6.8,��
2022/01/09,18:00,0.586,0.886,0.560,1.090,0.755,0.353,0.618,0.584,�k��,6.1,��
2022/01/09,18:10,0.597,0.886,0.559,1.089,0.757,0.354,0.617,0.586,�k��,6.9,��
2022/01/09,18:20,0.585,0.887,0.560,1.089,0.755,0.352,0.617,0.583,�k��,5.7,��
2022/01/09,18:30,0.585,0.887,0.560,1.090,0.755,0.353,0.618,0.584,�k��,5.8,��
2022/01/09,18:40,0.588,0.885,0.561,1.089,0.754,0.355,0.618,0.583,���k��,6.9,��
2022/01/09,18:50,0.585,0.887,0.559,1.092,0.756,0.353,0.618,0.586,���k��,6.8,��
2022/01/09,19:00,0.585,0.886,0.559,1.088,0.752,0.354,0.618,0.584,���k��,7.4,��
2022/01/09,19:10,0.586,0.886,0.561,1.089,0.756,0.352,0.617,0.584,���k��,9.0,��
2022/01/09,19:20,0.588,0.886,0.560,1.088,0.754,0.354,0.618,0.582,���k��,8.5,��
2022/01/09,19:30,0.586,0.886,0.561,1.090,0.753,0.353,0.617,0.586,���k��,8.3,��
2022/01/09,19:40,0.587,0.886,0.559,1.088,0.756,0.353,0.618,0.584,���k��,7.9,��
2022/01/09,19:50,0.585,0.886,0.560,1.089,0.755,0.353,0.616,0.586,���k��,6.7,��
2022/01/09,20:00,0.587,0.886,0.558,1.088,0.754,0.354,0.617,0.585,���k��,5.4,��
2022/01/09,20:10,0.585,0.887,0.560,1.089,0.753,0.352,0.616,0.584,�k��,5.2,��
2022/01/09,20:20,0.585,0.886,0.559,1.087,0.755,0.353,0.616,0.584,�k��,5.7,��
2022/01/09,20:30,0.584,0.887,0.559,1.089,0.755,0.352,0.615,0.583,�k��,5.7,��
2022/01/09,20:40,0.586,0.885,0.560,1.089,0.754,0.354,0.617,0.583,���k��,5.3,��
2022/01/09,20:50,0.584,0.888,0.559,1.090,0.755,0.352,0.617,0.584,���k��,5.8,��
2022/01/09,21:00,0.584,0.885,0.561,1.089,0.755,0.353,0.614,0.584,���k��,6.4,��
2022/01/09,21:10,0.587,0.885,0.558,1.089,0.754,0.352,0.617,0.584,���k��,7.7,��
2022/01/09,21:20,0.585,0.886,0.560,1.087,0.755,0.353,0.617,0.584,�k��,7.4,��
2022/01/09,21:30,0.585,0.889,0.560,1.089,0.755,0.352,0.617,0.585,�k��,9.7,��
2022/01/09,21:40,0.585,0.886,0.560,1.088,0.753,0.352,0.617,0.584,�k��,11.9,��
2022/01/09,21:50,0.586,0.884,0.559,1.089,0.753,0.353,0.617,0.584,�k��,10.9,��
2022/01/09,22:00,0.585,0.885,0.559,1.089,0.754,0.352,0.618,0.584,�k��,11.6,��
2022/01/09,22:10,0.587,0.886,0.560,1.089,0.754,0.354,0.617,0.585,�k��,12.4,��
2022/01/09,22:20,0.587,0.885,0.561,1.088,0.755,0.353,0.619,0.584,�k��,11.9,��
2022/01/09,22:30,0.585,0.886,0.559,1.090,0.754,0.353,0.617,0.585,���k��,11.7,��
2022/01/09,22:40,0.586,0.887,0.560,1.089,0.756,0.354,0.618,0.585,�k��,10.6,��
2022/01/09,22:50,0.587,0.887,0.559,1.089,0.755,0.354,0.616,0.583,�k��,9.7,��
2022/01/09,23:00,0.587,0.886,0.560,1.089,0.753,0.354,0.616,0.584,�k��,8.7,��
2022/01/09,23:10,0.585,0.888,0.560,1.089,0.756,0.353,0.617,0.585,�k��,7.1,��
2022/01/09,23:20,0.585,0.887,0.559,1.087,0.755,0.352,0.618,0.585,���k��,3.4,��
2022/01/09,23:30,0.585,0.888,0.561,1.088,0.753,0.355,0.618,0.585,�k��,1.5,��
2022/01/09,23:40,0.587,0.887,0.561,1.089,0.757,0.353,0.616,0.585,���k��,1.5,��
2022/01/09,23:50,0.585,0.888,0.561,1.089,0.755,0.354,0.616,0.584,�k�k��,2.0,��
